Tracking 20066 objects as of 6-Dec-2019
HD Live streaming from Space Station
objects crossing your sky now

LUCKY-7

Track LUCKY-7 now!
10-day predictions
LUCKY-7 is classified as:


NORAD ID: 44406
Int'l Code: 2019-038W
Perigee: 519.0 km
Apogee: 555.6 km
Inclination: 97.5 °
Period: 95.2 minutes
Semi major axis: 6908 km
RCS: Unknown
Launch date: July 5, 2019
Source: United States (US)
Launch site: VOSTOCHNY COSMODROME (VOSTO)

Uplink (MHz):
Downlink (MHz): 437.525
Beacon (MHz):
Mode: 4k8/9k6 FSK
Call sign:
Status: Active

aabbcc
Your satellite tracking list
Your tracking list is empty




NASA's NSSDC Master Catalog

Two Line Element Set (TLE):
1 44406U 19038W   19339.84918287 +.00000553 +00000-0 +35772-4 0  9992
2 44406 097.5128 299.0038 0026449 076.7554 283.6624 15.11973427023165
Source of the keplerian elements: AFSPC